SCP
-0 -0 0 0 0 0 0 0 0 0 0 0 0 0 0 0 0 0 0 1 1 1 1 1 1 1 1 1 0 0 0 0 0 0 0 0 0 0 0 0 0 0 0 0 0 0 0 0 0
-0 -0 0 0 0 0 0 0 0 0 0 0 0 0 0 0 0 0 0 1 1 1 1 1 1 1 1 1 1 0 0 0 0 0 0 0 0 0 0 0 0 0 0 0 0 0 0 0 0
0 0 0 0 0 0 0 0 0 0 0 0 0 0 0 0 0 0 1 1 1 1 1 1 1 1 1 1 1 0 0 0 0 0 0 0 0 0 0 0 0 0 0 0 0 0 0 0 0
0 0 0 0 0 0 0 0 0 0 0 0 0 0 0 0 0 0 1 1 1 1 1 1 1 1 1 1 1 1 1 0 0 0 0 0 0 0 0 0 0 0 0 0 0 0 0 0 0
0 0 0 0 0 0 0 0 0 0 0 0 0 0 0 0 1 1 1 1 1 1 1 1 1 1 1 1 1 1 1 1 0 0 0 0 0 0 0 0 0 0 0 0 0 0 0 0 0
0 0 0 0 0 0 0 0 0 0 0 0 0 0 0 1 1 1 1 1 1 1 1 1 1 1 1 1 1 1 1 1 1 1 1 0 0 0 0 0 0 0 0 0 0 0 0 0 0
0 0 0 0 0 0 0 0 0 0 0 0 0 0 1 1 1 1 1 1 1 1 1 1 1 1 1 1 1 1 1 1 1 1 1 0 0 0 0 0 0 0 0 0 0 0 0 0 0
0 0 0 0 0 0 0 0 0 0 0 0 0 0 1 1 1 1 1 1 1 1 1 1 1 1 1 1 1 1 1 1 1 1 1 0 0 0 0 0 0 0 0 0 0 0 0 0 0
0 0 0 0 0 0 0 0 0 0 0 0 1 1 1 1 1 1 1 1 1 1 1 1 1 1 1 1 1 1 1 1 1 1 1 0 0 0 0 0 0 0 0 0 0 0 0 0 0
0 0 0 0 0 0 0 0 0 0 0 1 1 1 1 1 1 1 1 1 1 1 1 1 1 1 1 1 1 1 1 1 1 1 1 1 0 0 0 1 1 1 1 0 0 0 0 0 0
0 0 0 0 0 0 0 0 0 0 0 0 1 1 1 1 1 1 1 1 1 1 1 1 1 1 1 1 1 1 1 1 1 1 1 1 1 1 1 1 1 1 1 1 0 0 0 0 0
0 0 0 0 0 0 0 0 0 0 0 1 1 1 1 1 1 1 1 1 1 1 1 1 1 2 2 2 2 1 1 1 1 1 1 1 1 1 1 1 1 1 1 1 1 0 0 0 0
0 0 0 0 0 0 0 0 0 0 0 1 1 1 1 1 1 1 1 1 1 1 2 2 2 2 2 2 2 2 2 2 2 1 1 1 1 1 1 1 1 1 1 1 1 0 0 0 0
0 0 0 0 0 0 0 0 0 0 0 0 0 0 1 1 1 1 1 1 2 2 2 2 2 3 3 3 3 2 2 2 2 2 1 1 1 1 1 1 1 1 1 1 1 1 0 0 0
0 0 0 0 0 0 0 0 0 0 0 0 0 0 0 1 1 1 1 2 2 2 2 2 2 3 3 3 3 2 2 2 2 2 2 2 2 2 1 1 1 1 1 1 1 1 1 0 0
0 0 0 0 0 0 0 0 0 0 0 0 0 0 0 1 1 1 1 2 2 2 2 2 2 3 3 3 3 3 2 2 2 2 2 2 2 2 1 1 1 1 1 1 1 1 1 0 0
0 0 0 0 0 0 0 0 0 0 0 0 0 1 1 1 1 1 1 2 2 2 2 2 2 3 3 3 3 3 3 2 2 2 2 2 2 2 2 1 1 1 1 1 1 1 1 0 0
0 0 0 0 0 0 0 0 0 0 0 0 0 1 1 1 1 1 1 1 2 2 2 2 3 3 3 3 3 3 3 2 2 2 2 2 2 2 2 1 1 1 1 1 1 1 0 0 0
0 0 0 0 0 0 0 0 0 0 0 0 0 1 1 1 1 1 1 1 2 2 2 2 2 3 3 3 3 2 2 2 2 2 2 2 2 2 1 1 1 1 1 1 1 0 0 0 0
0 0 0 0 0 0 0 0 0 0 0 0 0 1 1 1 1 1 1 2 2 2 2 2 2 2 3 3 2 2 2 2 2 2 2 2 2 2 1 1 1 1 1 1 0 0 0 0 0
0 0 0 0 0 0 0 0 0 0 0 0 0 0 1 1 1 1 2 2 2 2 2 2 2 2 2 2 2 2 2 2 1 1 1 1 1 1 1 1 1 1 1 0 0 0 0 0 0
0 0 0 0 0 0 0 0 0 0 0 0 0 0 1 1 1 1 1 1 1 1 1 2 2 2 2 2 2 2 2 1 1 1 1 1 1 1 1 1 1 1 1 0 0 0 0 0 0
0 0 0 0 0 0 0 0 0 0 0 0 0 0 0 1 1 1 1 1 1 1 1 1 2 2 2 2 2 2 2 1 1 1 1 1 1 1 1 1 1 1 0 0 0 0 0 0 0
0 0 0 0 0 0 0 0 0 0 0 0 0 0 0 1 1 1 1 1 1 1 1 1 2 2 2 2 2 2 1 1 1 1 1 1 1 1 1 1 1 0 0 0 0 0 0 0 0
0 0 0 0 0 0 0 0 0 0 0 0 0 0 0 1 1 1 1 1 1 1 1 1 1 1 2 2 2 1 1 1 1 1 1 1 1 1 1 1 0 0 0 0 0 0 0 0 0
0 0 0 0 0 0 0 0 0 0 0 0 0 0 1 1 1 1 1 1 1 1 1 1 1 1 1 1 1 1 1 1 1 1 1 1 0 0 0 0 0 0 0 0 0 0 0 0 0
0 0 0 0 0 0 0 0 0 0 0 0 0 0 1 1 1 1 1 1 1 1 1 1 1 1 1 1 1 1 1 1 1 1 1 0 0 0 0 0 0 0 0 0 0 0 0 0 0
0 0 0 0 0 0 0 0 0 0 0 0 0 0 0 0 0 0 1 1 1 1 1 1 1 1 1 1 1 1 1 1 1 1 0 0 0 0 0 0 0 0 0 0 0 0 0 0 0
0 0 0 0 0 0 0 0 0 0 0 0 0 0 0 0 0 0 0 1 1 1 1 1 1 1 1 1 1 1 1 1 1 0 0 0 0 0 0 0 0 0 0 0 0 0 0 0 0
0 0 0 0 0 0 0 0 0 0 0 0 0 0 0 0 0 0 0 1 1 1 1 1 1 1 1 1 1 1 1 1 1 0 0 0 0 0 0 0 0 0 0 0 0 0 0 0 0
Wind_Speed
7 10 9 8 8 9 12 8 4 3 2 6 7 5 7 9 8 9 7 12 19 20 18 17 16 15 14 13 12 12 11 10 10 9 9 8 7 6 6 5 4 3 3 3 2 2 2 3 3
9 11 9 8 9 10 8 5 3 1 5 6 6 5 6 8 10 10 10 14 20 18 16 15 17 15 14 13 12 11 11 10 9 9 8 7 6 5 4 4 3 2 2 1 1 2 2 2 3
12 14 9 9 13 12 7 2 2 6 7 4 3 4 5 7 9 9 11 17 18 16 15 16 17 15 14 13 12 12 11 10 9 8 7 7 6 5 3 3 2 1 1 1 1 1 2 2 3
8 9 9 11 15 14 7 3 0 3 4 4 4 4 6 6 7 12 14 16 17 16 16 16 16 15 14 13 12 11 10 9 8 8 7 6 5 4 3 2 1 1 0 1 1 2 2 3 4
10 8 12 13 16 10 4 3 3 3 2 3 4 5 7 7 12 14 14 15 15 15 15 16 15 14 13 13 12 11 10 9 8 7 7 6 5 4 3 2 1 1 1 1 1 2 2 3 4
8 8 11 13 14 9 5 6 5 3 3 2 4 5 6 9 11 12 13 13 14 16 17 15 15 15 14 12 11 10 9 9 8 7 6 6 5 4 3 2 2 1 1 1 2 3 3 4 5
11 11 14 14 12 8 6 5 5 2 4 4 3 5 8 10 11 11 12 12 13 16 16 14 13 13 13 12 11 10 9 8 8 7 6 6 6 5 5 4 3 2 2 3 3 4 4 5 6
12 12 16 14 12 8 4 4 4 2 2 2 1 4 8 11 11 11 10 10 12 14 15 13 13 12 11 10 11 11 10 9 8 7 7 7 7 7 6 5 5 4 4 4 5 5 7 8 9
16 14 13 13 10 6 3 4 2 2 2 1 3 7 11 15 13 11 10 8 9 11 12 12 13 12 11 11 11 11 10 9 8 7 7 6 5 6 7 7 7 7 7 7 7 7 8 9 11
13 12 14 11 8 6 3 3 2 2 3 3 6 11 13 13 12 11 11 9 10 10 11 10 11 11 10 9 9 7 7 7 6 5 6 5 4 4 4 7 9 9 9 8 8 9 9 9 6
13 13 11 9 7 6 6 5 3 3 2 3 6 11 10 11 11 10 9 9 9 9 8 9 9 8 7 6 7 5 4 5 6 5 5 4 3 2 1 2 4 5 6 5 5 6 5 4 3
13 12 10 9 6 6 6 7 4 2 2 3 6 10 9 9 10 10 9 9 8 9 8 7 8 7 5 5 5 4 4 4 4 4 3 3 1 1 0 1 2 2 2 2 2 2 2 4 4
12 10 9 7 6 6 5 6 4 2 1 4 6 8 9 8 8 8 8 7 8 8 7 6 6 6 4 4 3 4 3 3 3 2 2 1 1 1 1 1 0 1 1 1 2 2 3 4 4
8 9 9 8 7 6 6 7 6 3 3 4 5 5 6 7 7 6 7 7 7 7 7 5 5 6 5 4 2 2 2 2 2 2 2 1 1 0 1 1 0 1 1 1 2 2 3 2 3
9 9 10 9 8 7 7 6 4 4 3 5 6 6 6 6 7 7 6 6 6 6 6 6 6 6 5 4 3 2 2 2 2 2 2 1 0 1 1 1 0 1 2 1 2 3 2 3 3
11 11 11 10 9 9 8 5 3 3 4 4 5 6 5 6 6 6 6 5 5 5 6 5 6 7 5 3 2 1 1 2 1 2 2 2 1 1 1 1 1 1 2 1 1 1 2 2 2
10 10 10 9 8 7 6 5 4 5 6 5 6 6 6 6 6 6 6 6 5 5 5 5 4 6 5 4 3 2 2 1 1 1 2 2 1 1 0 0 1 2 1 1 3 2 2 3 3
9 10 9 9 6 7 6 5 6 6 4 4 6 7 6 6 5 6 6 6 5 5 4 4 4 4 4 4 3 2 2 2 1 2 2 2 1 1 0 1 0 2 1 1 2 3 3 2 3
10 10 11 8 4 6 5 4 6 7 6 5 5 6 7 6 7 7 6 6 6 5 5 3 4 4 3 2 2 2 2 2 2 2 2 2 1 1 1 1 0 1 0 1 2 2 3 3 2
10 10 10 7 4 4 4 5 6 6 8 6 6 6 6 5 5 6 6 6 6 6 6 4 4 4 3 2 2 1 1 1 2 1 2 2 2 1 2 1 1 0 1 1 2 2 2 3 2
9 8 8 8 9 8 6 6 6 4 5 5 5 6 7 7 6 5 5 5 5 5 6 5 5 4 3 3 2 1 1 1 1 1 1 1 1 1 1 1 1 1 1 1 2 2 3 3 3
8 7 8 9 11 8 6 6 4 6 5 5 5 4 6 7 7 6 5 5 5 5 5 5 5 4 4 3 2 2 2 1 1 0 1 1 2 2 2 2 2 2 1 1 2 1 3 4 3
9 9 9 11 12 11 9 7 4 5 5 6 6 4 5 7 7 7 6 5 5 5 4 5 5 5 4 4 3 3 2 1 0 0 1 2 2 3 2 2 2 2 1 1 3 2 3 3 3
8 10 12 11 9 11 10 7 4 3 4 5 6 6 4 5 6 6 5 5 4 4 4 4 5 4 4 4 3 3 3 2 1 1 1 2 2 2 3 2 2 2 2 2 3 3 3 3 3
6 7 7 7 6 6 5 3 1 2 3 6 6 6 6 6 6 5 4 4 4 4 4 4 5 4 4 4 4 3 3 3 3 3 2 2 2 2 2 2 2 2 2 3 3 3 3 3 3
6 6 6 7 7 8 6 2 3 5 5 7 8 7 5 5 5 4 3 3 3 3 4 4 4 3 4 4 3 3 3 2 2 3 2 2 2 2 2 2 3 3 3 4 3 3 3 3 3
7 7 7 8 10 8 4 1 2 5 7 6 6 5 4 4 4 3 3 2 2 3 4 4 4 3 3 3 3 3 3 2 2 2 2 2 1 2 2 3 3 3 4 4 3 3 3 3 3
7 6 5 6 7 6 4 3 2 1 3 3 3 3 2 3 4 3 2 2 3 4 4 4 3 3 2 1 2 2 2 2 2 2 2 2 2 2 2 4 4 3 4 4 3 3 3 3 3
9 6 5 5 6 6 5 3 2 1 2 3 3 3 3 3 3 3 3 3 4 4 4 3 3 3 2 2 2 1 1 2 2 2 2 2 2 2 3 3 3 3 4 3 2 3 4 3 4
10 9 6 5 5 6 4 3 3 3 3 4 3 3 3 3 2 3 3 3 4 4 3 2 2 3 3 2 2 2 1 1 2 2 2 2 2 3 3 3 3 4 4 3 3 4 4 3 4
Wind_Direction
218 233 229 239 241 239 248 243 247 259 89 72 70 60 60 42 55 100 127 116 115 122 131 133 131 130 129 129 129 128 126 126 126 127 127 123 120 117 111 107 103 96 89 81 66 49 31 20 14
234 234 234 239 247 248 248 231 220 122 76 77 76 74 72 70 79 105 116 116 117 124 134 134 134 132 131 130 130 129 129 130 131 131 131 131 129 125 120 115 112 103 88 65 41 25 14 3 352
251 245 244 239 242 252 266 264 119 92 84 81 81 67 57 76 92 105 117 122 119 124 130 131 137 135 134 133 133 133 134 135 136 137 137 137 134 132 130 131 131 124 101 14 345 343 340 330 324
238 230 238 248 249 245 249 272 93 124 110 113 105 94 76 59 97 117 128 125 124 130 132 135 140 138 138 137 137 137 138 139 140 142 141 140 140 140 141 145 153 166 219 301 310 318 313 306 302
236 240 238 251 253 252 244 248 229 179 148 126 118 103 95 87 101 118 128 129 134 135 132 137 141 140 139 139 140 142 142 143 144 146 147 145 143 143 146 154 167 174 197 272 296 300 295 294 292
227 237 244 251 253 243 234 237 235 194 166 185 149 132 108 118 123 132 136 142 143 136 132 136 143 143 144 145 146 145 145 147 149 151 151 152 156 160 165 172 180 190 222 266 285 291 289 288 285
241 245 249 254 260 255 242 233 236 200 182 201 166 130 129 134 132 138 139 147 142 135 133 141 148 148 148 149 149 149 149 152 154 156 161 168 177 183 187 190 201 218 240 258 268 276 277 274 274
247 263 265 260 263 264 243 248 227 196 188 125 140 138 142 135 136 137 138 145 139 137 137 146 151 153 155 156 157 157 159 162 165 169 180 190 196 201 203 200 206 222 235 246 255 263 268 269 267
242 256 266 268 269 268 239 250 210 158 145 137 76 88 120 133 140 143 143 145 137 136 139 153 153 158 163 163 161 164 168 173 176 184 196 205 213 211 206 214 201 214 227 238 248 257 264 267 262
233 250 259 275 294 299 297 271 263 199 181 143 111 110 131 142 148 155 152 150 148 146 146 153 154 158 167 164 154 173 176 175 187 193 193 208 224 224 217 183 197 214 227 238 245 254 263 261 261
234 250 272 285 299 309 316 300 294 262 224 153 136 132 143 152 153 160 156 153 153 149 148 157 155 156 166 153 155 172 176 170 187 199 197 202 217 227 204 163 183 212 224 233 241 245 252 261 268
237 250 264 276 298 300 300 298 304 308 292 99 126 133 149 161 160 158 158 159 153 150 155 155 151 151 159 149 155 168 170 164 178 177 187 194 204 253 217 180 179 208 216 227 250 251 260 274 274
246 250 252 265 270 279 285 284 284 286 78 99 127 142 160 162 159 157 156 159 155 149 153 153 144 141 142 139 160 165 168 163 156 140 159 196 185 247 280 275 268 261 249 232 272 286 289 285 283
263 261 256 246 240 242 257 259 249 229 181 138 134 140 160 159 152 149 153 159 156 153 154 152 146 139 141 139 145 145 144 129 131 122 136 203 214 154 297 267 279 311 323 330 284 288 286 283 282
276 267 260 246 238 227 240 262 253 256 214 164 154 159 167 157 152 151 155 148 148 151 156 158 154 142 147 154 166 154 146 139 130 133 146 145 114 76 318 295 339 338 306 280 274 285 294 281 286
256 255 256 246 235 224 222 248 261 236 229 192 164 157 151 138 144 145 156 146 146 152 156 164 164 146 145 149 163 147 122 126 124 129 127 119 98 88 327 322 22 326 296 301 291 285 303 310 309
248 248 248 252 241 238 227 235 232 234 225 190 166 157 153 145 148 145 146 140 139 139 143 152 148 144 149 151 154 153 129 128 127 125 114 110 92 76 358 348 27 295 291 335 314 342 319 310 303
268 270 258 254 243 248 244 226 204 209 216 182 171 160 155 150 148 141 138 138 134 132 132 138 138 129 153 153 148 154 152 156 156 138 127 136 146 124 300 192 145 289 314 338 327 327 302 285 284
283 289 285 276 235 243 252 238 214 184 190 194 177 161 160 158 150 139 141 144 146 137 130 135 144 137 144 147 164 177 180 179 170 163 146 150 157 150 228 295 202 272 282 294 302 303 299 285 279
283 278 283 296 294 273 255 243 236 200 188 185 175 157 148 135 127 136 149 149 149 147 149 155 159 155 153 153 166 182 194 204 187 173 153 166 164 184 209 187 234 274 263 268 288 286 289 295 301
283 291 302 309 300 271 261 252 232 222 191 176 171 152 142 141 136 140 146 153 153 157 165 165 161 160 158 157 155 152 166 250 222 184 176 171 181 202 221 198 221 262 262 249 274 289 296 293 290
289 301 305 295 284 279 264 271 232 209 198 173 166 158 140 140 141 148 156 167 158 164 170 163 156 159 159 160 163 189 200 209 251 250 149 202 209 211 208 202 197 233 247 254 275 280 283 275 283
298 307 293 284 281 287 270 261 226 197 196 177 169 163 147 147 152 155 158 165 163 174 174 159 152 159 163 173 175 198 212 218 203 81 169 215 217 218 208 207 207 235 239 239 261 267 270 277 287
306 302 290 273 267 264 266 268 234 189 195 175 160 138 141 141 142 145 146 150 164 170 167 158 153 163 170 178 181 196 199 196 196 239 238 247 224 211 196 198 211 234 236 243 255 256 256 261 278
310 303 293 286 275 274 285 280 352 101 128 145 138 140 140 132 127 133 143 148 155 158 160 159 156 170 174 178 185 190 191 201 212 217 234 252 245 225 194 211 219 231 241 247 251 260 260 261 271
300 296 294 302 304 304 307 296 80 78 77 101 106 108 110 113 113 119 121 128 149 154 149 150 149 159 172 178 177 184 196 212 217 219 232 244 259 251 224 229 234 238 238 250 246 256 258 260 265
301 294 304 300 291 281 278 140 112 89 84 80 90 98 106 111 116 115 120 128 134 131 130 132 131 144 161 166 170 188 198 216 232 226 241 235 246 248 236 246 244 245 245 248 251 258 263 271 266
274 304 321 305 302 301 317 350 6 45 103 104 90 93 92 107 115 117 114 117 122 120 118 120 122 131 141 161 186 200 192 209 214 228 248 254 262 268 249 255 256 257 256 251 247 264 259 259 265
320 311 296 297 308 308 308 324 13 57 107 89 83 76 93 94 97 106 114 118 117 117 120 131 140 145 155 174 167 178 204 217 218 238 245 245 255 263 263 263 256 260 261 259 255 265 270 269 276
317 320 320 310 304 300 304 307 15 9 70 87 92 74 66 67 77 102 100 100 109 115 124 133 143 150 161 173 167 174 209 220 229 257 259 255 262 263 261 263 269 270 269 265 258 265 279 281 284